TimeCST,TemperatureF,Dew PointF,Humidity,Sea Level PressureIn,VisibilityMPH,Wind Direction,Wind SpeedMPH,Gust SpeedMPH,PrecipitationIn,Events,Conditions,WindDirDegrees,DateUTC
12:15 AM,39.2,35.6,87,30.03,7.0,East,3.5,-,N/A,,Overcast,100,2012-11-09 06:15:00
12:35 AM,39.2,35.6,87,30.02,7.0,ESE,3.5,-,N/A,,Overcast,120,2012-11-09 06:35:00
12:55 AM,39.2,35.6,87,30.01,7.0,East,4.6,-,N/A,,Overcast,100,2012-11-09 06:55:00
1:15 AM,39.2,35.6,87,30.01,7.0,ESE,4.6,-,N/A,,Overcast,110,2012-11-09 07:15:00
1:35 AM,39.2,35.6,87,30.01,7.0,ESE,3.5,-,N/A,,Mostly Cloudy,120,2012-11-09 07:35:00
1:55 AM,37.4,35.6,93,30.01,7.0,ESE,3.5,-,N/A,,Mostly Cloudy,110,2012-11-09 07:55:00
2:15 AM,37.4,33.8,87,30.01,7.0,SE,3.5,-,N/A,,Mostly Cloudy,140,2012-11-09 08:15:00
2:35 AM,37.4,33.8,87,30.01,7.0,ESE,3.5,-,N/A,,Scattered Clouds,110,2012-11-09 08:35:00
2:55 AM,37.4,33.8,87,30.01,7.0,Calm,Calm,-,N/A,,Clear,0,2012-11-09 08:55:00
3:35 AM,35.6,33.8,93,30.01,5.0,Calm,Calm,-,N/A,,Clear,0,2012-11-09 09:35:00
3:55 AM,35.6,33.8,93,30.01,5.0,Calm,Calm,-,N/A,,Clear,0,2012-11-09 09:55:00
4:15 AM,35.6,33.8,93,30.01,5.0,ESE,3.5,-,N/A,,Clear,120,2012-11-09 10:15:00
4:35 AM,35.6,33.8,93,30.01,5.0,ESE,3.5,-,N/A,,Clear,120,2012-11-09 10:35:00
4:55 AM,35.6,33.8,93,30.01,5.0,Calm,Calm,-,N/A,,Clear,0,2012-11-09 10:55:00
5:15 AM,35.6,33.8,93,30.03,5.0,Calm,Calm,-,N/A,,Clear,0,2012-11-09 11:15:00
5:35 AM,33.8,32.0,93,30.02,4.0,East,3.5,-,N/A,,Scattered Clouds,100,2012-11-09 11:35:00
5:55 AM,35.6,33.8,93,30.01,4.0,ESE,3.5,-,N/A,,Overcast,120,2012-11-09 11:55:00
6:15 AM,35.6,33.8,93,30.01,5.0,Calm,Calm,-,N/A,,Overcast,0,2012-11-09 12:15:00
6:35 AM,35.6,33.8,93,30.00,4.0,East,3.5,-,N/A,,Scattered Clouds,100,2012-11-09 12:35:00
6:55 AM,35.6,33.8,93,30.01,5.0,East,3.5,-,N/A,,Mostly Cloudy,100,2012-11-09 12:55:00
7:35 AM,37.4,35.6,93,30.03,4.0,Calm,Calm,-,N/A,,Overcast,0,2012-11-09 13:35:00
7:55 AM,37.4,35.6,93,30.04,4.0,Calm,Calm,-,N/A,,Overcast,0,2012-11-09 13:55:00
8:15 AM,39.2,35.6,87,30.04,4.0,Calm,Calm,-,N/A,,Overcast,0,2012-11-09 14:15:00
8:35 AM,39.2,35.6,87,30.03,4.0,Calm,Calm,-,N/A,,Overcast,0,2012-11-09 14:35:00
8:55 AM,41.0,37.4,87,30.03,5.0,Calm,Calm,-,N/A,,Scattered Clouds,0,2012-11-09 14:55:00
9:15 AM,41.0,37.4,87,30.03,5.0,Calm,Calm,-,N/A,,Scattered Clouds,0,2012-11-09 15:15:00
9:35 AM,44.6,37.4,76,30.03,5.0,ESE,5.8,-,N/A,,Haze,110,2012-11-09 15:35:00
9:55 AM,44.6,37.4,76,30.03,7.0,ESE,4.6,-,N/A,,Scattered Clouds,110,2012-11-09 15:55:00
10:15 AM,46.4,39.2,76,30.02,7.0,ESE,5.8,-,N/A,,Mostly Cloudy,110,2012-11-09 16:15:00
10:35 AM,46.4,39.2,76,30.02,7.0,ESE,6.9,-,N/A,,Overcast,110,2012-11-09 16:35:00
10:55 AM,48.2,39.2,71,30.01,7.0,ESE,6.9,-,N/A,,Mostly Cloudy,110,2012-11-09 16:55:00
11:15 AM,48.2,39.2,71,30.01,7.0,ESE,4.6,-,N/A,,Scattered Clouds,110,2012-11-09 17:15:00
11:35 AM,50.0,39.2,66,29.99,7.0,ESE,5.8,-,N/A,,Mostly Cloudy,110,2012-11-09 17:35:00
11:55 AM,50.0,39.2,66,29.98,7.0,Calm,Calm,-,N/A,,Overcast,0,2012-11-09 17:55:00
12:15 PM,51.8,39.2,62,29.97,7.0,Calm,Calm,-,N/A,,Mostly Cloudy,0,2012-11-09 18:15:00
12:35 PM,53.6,39.2,58,29.96,7.0,ESE,5.8,-,N/A,,Mostly Cloudy,110,2012-11-09 18:35:00
12:55 PM,53.6,39.2,58,29.95,10.0,East,8.1,-,N/A,,Scattered Clouds,80,2012-11-09 18:55:00
1:15 PM,53.6,39.2,58,29.94,10.0,ESE,6.9,-,N/A,,Scattered Clouds,110,2012-11-09 19:15:00
1:35 PM,53.6,41.0,62,29.94,10.0,ENE,4.6,-,N/A,,Mostly Cloudy,70,2012-11-09 19:35:00
1:55 PM,53.6,41.0,62,29.93,10.0,East,8.1,-,N/A,,Scattered Clouds,80,2012-11-09 19:55:00
2:15 PM,53.6,41.0,62,29.92,10.0,ENE,8.1,-,N/A,,Mostly Cloudy,70,2012-11-09 20:15:00
2:35 PM,53.6,41.0,62,29.92,10.0,ENE,8.1,-,N/A,,Mostly Cloudy,70,2012-11-09 20:35:00
2:55 PM,53.6,41.0,62,29.91,10.0,ENE,8.1,-,N/A,,Scattered Clouds,70,2012-11-09 20:55:00
3:15 PM,53.6,41.0,62,29.92,10.0,ENE,6.9,-,N/A,,Scattered Clouds,70,2012-11-09 21:15:00
3:35 PM,53.6,41.0,62,29.92,10.0,ENE,9.2,-,N/A,,Clear,70,2012-11-09 21:35:00
3:55 PM,51.8,41.0,67,29.92,10.0,NE,6.9,-,N/A,,Scattered Clouds,50,2012-11-09 21:55:00
4:15 PM,51.8,41.0,67,29.92,10.0,ENE,6.9,-,N/A,,Scattered Clouds,60,2012-11-09 22:15:00
4:35 PM,51.8,41.0,67,29.92,10.0,NE,9.2,-,N/A,,Mostly Cloudy,50,2012-11-09 22:35:00
4:55 PM,50.0,39.2,66,29.92,10.0,ENE,9.2,-,N/A,,Mostly Cloudy,60,2012-11-09 22:55:00
5:15 PM,50.0,39.2,66,29.93,7.0,ENE,4.6,-,N/A,,Scattered Clouds,70,2012-11-09 23:15:00
5:35 PM,50.0,39.2,66,29.95,7.0,ENE,5.8,-,N/A,,Mostly Cloudy,60,2012-11-09 23:35:00
5:55 PM,50.0,39.2,66,29.96,7.0,East,8.1,-,N/A,,Overcast,80,2012-11-09 23:55:00
6:15 PM,50.0,39.2,66,29.96,7.0,ENE,5.8,-,N/A,,Overcast,70,2012-11-10 00:15:00
6:35 PM,50.0,39.2,66,29.96,7.0,East,6.9,-,N/A,,Overcast,80,2012-11-10 00:35:00
6:55 PM,50.0,39.2,66,29.96,7.0,East,6.9,-,N/A,,Overcast,90,2012-11-10 00:55:00
7:15 PM,50.0,39.2,66,29.96,7.0,East,5.8,-,N/A,,Overcast,90,2012-11-10 01:15:00
7:35 PM,50.0,39.2,66,29.96,7.0,East,6.9,-,N/A,,Overcast,80,2012-11-10 01:35:00
7:55 PM,50.0,39.2,66,29.96,7.0,East,4.6,-,N/A,,Overcast,90,2012-11-10 01:55:00
8:15 PM,50.0,41.0,71,29.96,7.0,East,9.2,-,N/A,,Overcast,80,2012-11-10 02:15:00
8:35 PM,48.2,39.2,71,29.95,7.0,East,9.2,-,N/A,,Overcast,80,2012-11-10 02:35:00
8:55 PM,50.0,41.0,71,29.96,7.0,East,6.9,-,N/A,,Overcast,80,2012-11-10 02:55:00
9:15 PM,48.2,41.0,76,29.95,7.0,East,10.4,16.1,N/A,,Overcast,90,2012-11-10 03:15:00
9:35 PM,48.2,41.0,76,29.96,7.0,East,8.1,-,N/A,,Overcast,90,2012-11-10 03:35:00
9:55 PM,48.2,41.0,76,29.96,7.0,ENE,8.1,-,N/A,,Overcast,70,2012-11-10 03:55:00
10:15 PM,48.2,41.0,76,29.96,7.0,East,5.8,-,N/A,,Overcast,90,2012-11-10 04:15:00
10:35 PM,50.0,41.0,71,29.96,7.0,East,5.8,-,N/A,,Overcast,90,2012-11-10 04:35:00
10:55 PM,50.0,41.0,71,29.95,7.0,ENE,6.9,-,N/A,,Overcast,70,2012-11-10 04:55:00
11:15 PM,50.0,41.0,71,29.94,7.0,East,8.1,-,N/A,,Overcast,90,2012-11-10 05:15:00
11:35 PM,50.0,41.0,71,29.94,7.0,East,6.9,-,N/A,,Overcast,80,2012-11-10 05:35:00
11:55 PM,48.2,41.0,76,29.93,7.0,East,8.1,-,N/A,,Overcast,90,2012-11-10 05:55:00